| time (UTC) | temp C | wind direction | speed KPH | gust KPH | rain 1hr cm | rain 24hr cm | rain mn cm | humidity % | barometer mb |
| 20260504090107 | 22 | 235 | 6.4 | 17.7 | 0.00 | 0.00 | 0.00 | 38 | 1006.9 |
| 20260504081048 | 21 | 270 | 8.0 | 17.7 | 0.00 | 0.00 | 0.00 | 40 | 1006.8 |
| 20260504045036 | 15 | 207 | 6.4 | 17.7 | 0.00 | 0.00 | 0.00 | 50 | 1006.1 |
| 20260504044033 | 15 | 196 | 8.0 | 16.1 | 0.00 | 0.00 | 0.00 | 50 | 1006.1 |
| 20260504043029 | 15 | 193 | 8.0 | 17.7 | 0.00 | 0.00 | 0.00 | 50 | 1006.0 |
| 20260504042026 | 14 | 193 | 6.4 | 12.9 | 0.00 | 0.00 | 0.00 | 52 | 1006.0 |
| 20260504041022 | 14 | 160 | 6.4 | 9.7 | 0.00 | 0.00 | 0.00 | 52 | 1006.0 |
| 20260504040018 | 14 | 184 | 6.4 | 12.9 | 0.00 | 0.00 | 0.00 | 52 | 1006.0 |
| 20260504035115 | 14 | 149 | 12.9 | 17.7 | 0.00 | 0.00 | 0.00 | 51 | 1005.7 |
| 20260504034131 | 15 | 165 | 9.7 | 16.1 | 0.00 | 0.00 | 0.00 | 51 | 1005.8 |
| 20260504033109 | 15 | 176 | 9.7 | 16.1 | 0.00 | 0.00 | 0.00 | 50 | 1005.8 |
| 20260504032125 | 15 | 168 | 8.0 | 12.9 | 0.00 | 0.00 | 0.00 | 49 | 1005.8 |
| 20260504031100 | 15 | 184 | 6.4 | 12.9 | 0.00 | 0.00 | 0.00 | 47 | 1006.0 |
| 20260504030056 | 15 | 184 | 8.0 | 19.3 | 0.00 | 0.00 | 0.00 | 48 | 1005.9 |
| 20260504025053 | 15 | 180 | 8.0 | 14.5 | 0.00 | 0.00 | 0.00 | 47 | 1006.0 |
| 20260504024049 | 15 | 202 | 8.0 | 16.1 | 0.00 | 0.00 | 0.00 | 47 | 1005.9 |
| 20260504023046 | 15 | 178 | 8.0 | 17.7 | 0.00 | 0.00 | 0.00 | 50 | 1006.0 |
| 20260504022042 | 14 | 168 | 9.7 | 16.1 | 0.00 | 0.00 | 0.00 | 50 | 1005.9 |
| 20260504021039 | 14 | 174 | 11.3 | 14.5 | 0.00 | 0.00 | 0.00 | 50 | 1005.8 |
| 20260504020035 | 14 | 165 | 11.3 | 17.7 | 0.00 | 0.00 | 0.00 | 50 | 1005.9 |
| 20260504015031 | 15 | 164 | 9.7 | 14.5 | 0.00 | 0.00 | 0.00 | 49 | 1005.9 |
| 20260504014028 | 15 | 163 | 9.7 | 16.1 | 0.00 | 0.00 | 0.00 | 49 | 1006.0 |
| 20260504013024 | 15 | 150 | 11.3 | 17.7 | 0.00 | 0.00 | 0.00 | 47 | 1005.9 |
| 20260504012021 | 15 | 173 | 12.9 | 19.3 | 0.00 | 0.00 | 0.00 | 46 | 1005.9 |
| 20260504011117 | 15 | 164 | 12.9 | 20.9 | 0.00 | 0.00 | 0.00 | 46 | 1006.0 |
| 20260504010113 | 15 | 183 | 12.9 | 19.3 | 0.00 | 0.00 | 0.00 | 45 | 1006.0 |
| 20260504005130 | 15 | 159 | 14.5 | 19.3 | 0.00 | 0.00 | 0.00 | 45 | 1005.8 |
| 20260504004107 | 15 | 162 | 12.9 | 17.7 | 0.00 | 0.00 | 0.00 | 45 | 1005.9 |
| 20260504003128 | 15 | 158 | 12.9 | 19.3 | 0.00 | 0.00 | 0.00 | 44 | 1005.8 |
| 20260504002059 | 15 | 166 | 14.5 | 22.5 | 0.00 | 0.00 | 0.00 | 44 | 1005.9 |
| 20260504001056 | 15 | 180 | 11.3 | 17.7 | 0.00 | 0.00 | 0.00 | 43 | 1006.0 |
| 20260504000052 | 15 | 188 | 11.3 | 17.7 | 0.00 | 0.00 | 0.00 | 42 | 1005.9 |
| 20260503235048 | 16 | 172 | 11.3 | 19.3 | 0.00 | 0.00 | 0.00 | 40 | 1006.0 |
| 20260503234105 | 16 | 164 | 12.9 | 19.3 | 0.00 | 0.00 | 0.00 | 39 | 1006.1 |
| 20260503233042 | 16 | 162 | 12.9 | 20.9 | 0.00 | 0.00 | 0.00 | 37 | 1006.2 |
| 20260503232037 | 17 | 158 | 12.9 | 20.9 | 0.00 | 0.00 | 0.00 | 35 | 1006.1 |
| 20260503231055 | 17 | 159 | 12.9 | 20.9 | 0.00 | 0.00 | 0.00 | 34 | 1006.3 |
| 20260503230030 | 17 | 176 | 12.9 | 19.3 | 0.00 | 0.00 | 0.00 | 34 | 1006.3 |
| 20260503225048 | 16 | 177 | 12.9 | 17.7 | 0.00 | 0.00 | 0.00 | 36 | 1006.4 |
| 20260503224044 | 16 | 149 | 11.3 | 16.1 | 0.00 | 0.00 | 0.00 | 37 | 1006.5 |
| 20260503223020 | 16 | 153 | 9.7 | 12.9 | 0.00 | 0.00 | 0.00 | 34 | 1006.5 |
| 20260503222118 | 17 | 154 | 8.0 | 12.9 | 0.00 | 0.00 | 0.00 | 32 | 1006.5 |
| 20260503221113 | 17 | 186 | 11.3 | 16.1 | 0.00 | 0.00 | 0.00 | 31 | 1006.6 |
| 20260503220109 | 17 | 169 | 11.3 | 17.7 | 0.00 | 0.00 | 0.00 | 31 | 1006.6 |
| 20260503215126 | 17 | 173 | 11.3 | 16.1 | 0.00 | 0.00 | 0.00 | 30 | 1006.7 |
| 20260503214102 | 17 | 170 | 11.3 | 14.5 | 0.00 | 0.00 | 0.00 | 30 | 1006.6 |
| 20260503213058 | 17 | 176 | 9.7 | 14.5 | 0.00 | 0.00 | 0.00 | 30 | 1006.7 |
| 20260503212055 | 17 | 173 | 9.7 | 14.5 | 0.00 | 0.00 | 0.00 | 30 | 1006.6 |
| 20260503211051 | 17 | 167 | 8.0 | 12.9 | 0.00 | 0.00 | 0.00 | 30 | 1006.6 |
| 20260503210048 | 18 | 177 | 8.0 | 12.9 | 0.00 | 0.00 | 0.00 | 32 | 1006.7 |
| 20260503205044 | 18 | 151 | 9.7 | 14.5 | 0.00 | 0.00 | 0.00 | 31 | 1006.7 |
| 20260503204046 | 18 | 170 | 11.3 | 17.7 | 0.00 | 0.00 | 0.00 | 30 | 1006.7 |
| 20260503203037 | 18 | 172 | 9.7 | 16.1 | 0.00 | 0.00 | 0.00 | 29 | 1006.7 |
| 20260503202033 | 19 | 158 | 11.3 | 17.7 | 0.00 | 0.00 | 0.00 | 28 | 1006.7 |
| 20260503201030 | 19 | 161 | 9.7 | 14.5 | 0.00 | 0.00 | 0.00 | 27 | 1006.7 |
| 20260503200026 | 19 | 154 | 9.7 | 12.9 | 0.00 | 0.00 | 0.00 | 27 | 1006.7 |
| 20260503195022 | 20 | 161 | 9.7 | 17.7 | 0.00 | 0.00 | 0.00 | 25 | 1006.8 |
| 20260503194019 | 20 | 152 | 9.7 | 17.7 | 0.00 | 0.00 | 0.00 | 24 | 1006.8 |
| 20260503193120 | 20 | 172 | 9.7 | 12.9 | 0.00 | 0.00 | 0.00 | 24 | 1006.7 |
| 20260503192112 | 20 | 165 | 11.3 | 14.5 | 0.00 | 0.00 | 0.00 | 24 | 1006.6 |
| 20260503191108 | 20 | 185 | 11.3 | 17.7 | 0.00 | 0.00 | 0.00 | 24 | 1006.8 |
| 20260503190104 | 21 | 156 | 9.7 | 16.1 | 0.00 | 0.00 | 0.00 | 23 | 1006.7 |
| 20260503185100 | 21 | 158 | 9.7 | 14.5 | 0.00 | 0.00 | 0.00 | 23 | 1006.6 |
| 20260503184057 | 22 | 156 | 9.7 | 16.1 | 0.00 | 0.00 | 0.00 | 21 | 1006.5 |
| 20260503183114 | 22 | 153 | 9.7 | 16.1 | 0.00 | 0.00 | 0.00 | 19 | 1006.5 |
| 20260503182050 | 23 | 177 | 8.0 | 17.7 | 0.00 | 0.00 | 0.00 | 22 | 1006.5 |
| 20260503181047 | 23 | 184 | 8.0 | 12.9 | 0.00 | 0.00 | 0.00 | 22 | 1006.4 |
| 20260503175040 | 25 | 198 | 4.8 | 16.1 | 0.00 | 0.00 | 0.00 | 16 | 1006.3 |
| 20260503174035 | 26 | 187 | 4.8 | 9.7 | 0.00 | 0.00 | 0.00 | 14 | 1006.3 |
| 20260503173113 | 27 | 189 | 4.8 | 12.9 | 0.00 | 0.00 | 0.00 | 13 | 1006.2 |
| 20260503172028 | 27 | 250 | 4.8 | 9.7 | 0.00 | 0.00 | 0.00 | 13 | 1006.3 |
| 20260503171045 | -17 | 0.0 | 0.0 | 0.00 | 0.00 | 0.00 | 1006.3 | ||
| 20260503160140 | -17 | 0.0 | 0.0 | 0.00 | 0.00 | 0.00 | 1006.6 | ||
| 20260503140116 | -17 | 0.0 | 0.0 | 0.00 | 0.00 | 0.00 | 1007.6 | ||
| 20260503131058 | -17 | 0.0 | 0.0 | 0.00 | 0.00 | 0.00 | 1008.3 | ||
| 20260503110110 | -17 | 0.0 | 0.0 | 0.00 | 0.00 | 0.00 | 1009.6 |